FW2520 Weather Reports


time (UTC)temp
C
wind
direction
speed
KPH
gust
KPH
rain 1hr
cm
rain 24hr
cm
rain mn
cm
humidity
%
barometer
mb
20260906043029 23 203 0.0 3.2 0.00 0.58 0.58 57 1013.1
20260906041529 23 203 0.0 4.8 0.00 0.58 0.58 57 1013.1
20260906040028 23 202 0.0 3.2 0.00 0.58 0.58 57 1013.3
20260906034538 23 202 0.0 1.6 0.00 0.58 0.58 57 1013.4
20260906033045 23 202 0.0 3.2 0.00 0.58 0.58 58 1013.5
20260906031545 23 196 0.0 6.4 0.00 0.58 0.58 59 1013.5
20260906030043 23 174 0.0 3.2 0.00 0.58 0.58 59 1013.2
20260906024542 24 174 0.0 4.8 0.00 0.58 0.58 60 1013.5
20260906023027 25 173 1.6 4.8 0.00 0.58 0.58 61 1013.0
20260906021526 25 178 0.0 1.6 0.00 0.58 0.58 60 1012.5
20260906020028 25 178 0.0 0.0 0.00 0.58 0.58 60 1012.5
20260906014532 25 178 0.0 4.8 0.00 0.58 0.58 60 1012.6
20260906013026 25 148 0.0 0.0 0.00 0.58 0.58 61 1012.5
20260906011525 25 148 0.0 1.6 0.00 0.58 0.58 61 1012.4
20260906010025 25 148 0.0 8.0 0.00 0.58 0.58 61 1012.3
20260906004525 26 278 0.0 1.6 0.00 0.58 0.58 60 1012.2
20260906003023 26 278 0.0 1.6 0.00 0.58 0.58 59 1012.1
20260906001524 26 278 3.2 8.0 0.00 0.58 0.58 59 1012.1
20260906000028 27 286 0.0 1.6 0.00 0.58 0.58 58 1012.0
20260905234522 27 286 0.0 3.2 0.03 0.58 0.58 57 1011.7
20260905233004 27 286 1.6 6.4 0.03 0.58 0.58 56 1011.6
20260905231504 27 295 1.6 6.4 0.03 0.58 0.58 55 1011.3
20260905230003 27 272 4.8 9.7 0.03 0.58 0.58 55 1011.4
20260905224504 27 293 1.6 6.4 0.00 0.56 0.56 55 1011.5
20260905223021 27 259 3.2 8.0 0.00 0.56 0.56 55 1011.5
20260905221521 27 270 1.6 6.4 0.00 0.56 0.56 55 1011.4
20260905220019 26 288 4.8 12.9 0.00 0.56 0.56 55 1011.4
20260905214520 25 283 4.8 14.5 0.00 0.56 0.56 56 1011.4
20260905213019 25 343 3.2 12.9 0.00 0.56 0.56 56 1011.8
20260905211517 24 281 4.8 12.9 0.00 0.56 0.56 56 1012.0
20260905210016 23 257 6.4 16.1 0.00 0.56 0.56 56 1012.1
20260905204517 23 254 6.4 12.9 0.00 0.56 0.56 58 1012.6
20260905203017 22 268 4.8 11.3 0.00 0.56 0.56 58 1012.8
20260905201515 22 322 3.2 12.9 0.00 0.56 0.56 58 1012.9
20260905200023 23 231 1.6 4.8 0.41 0.56 0.56 60 1012.6
20260905194514 22 99 0.0 4.8 0.56 0.56 0.56 60 1012.3
20260905193025 22 223 0.0 11.3 0.56 0.56 0.56 61 1012.7
20260905191510 23 103 3.2 19.3 0.56 0.56 0.56 61 1012.9
20260905190012 25 31 12.9 32.2 0.38 0.38 0.38 57 1013.6
20260905184508 29 327 16.1 35.4 0.00 0.00 0.00 36 1012.9
20260905183003 34 355 6.4 20.9 0.00 0.00 0.00 35 1012.2
20260905181505 35 340 4.8 14.5 0.00 0.00 0.00 33 1011.5
20260905180059 35 5 3.2 12.9 0.00 0.00 0.00 34 1012.0
20260905174559 35 360 0.0 16.1 0.00 0.00 0.00 34 1012.5
20260905173107 35 141 3.2 8.0 0.00 0.00 0.00 35 1012.8
20260905171652 34 259 1.6 9.7 0.00 0.00 0.00 36 1013.1
20260905170050 33 276 4.8 8.0 0.00 0.00 0.00 38 1013.3
20260905164548 35 259 1.6 11.3 0.00 0.00 0.00 35 1013.5
20260905163022 33 323 1.6 8.0 0.00 0.00 0.00 40 1013.7
20260905161519 32 248 1.6 8.0 0.00 0.00 0.00 43 1014.0
20260905160051 33 142 1.6 6.4 0.00 0.00 0.00 44 1014.1
20260905154548 32 116 3.2 6.4 0.00 0.00 0.00 45 1014.2
20260905153038 32 195 1.6 6.4 0.00 0.00 0.00 47 1014.1
20260905151535 31 191 0.0 4.8 0.00 0.00 0.00 50 1014.1
20260905150030 30 268 4.8 9.7 0.00 0.00 0.00 51 1014.4
20260905144541 30 247 3.2 11.3 0.00 0.00 0.00 53 1014.4
20260905143025 29 265 4.8 11.3 0.00 0.00 0.00 54 1014.5
20260905141535 28 196 1.6 4.8 0.00 0.00 0.00 55 1014.3
20260905140020 27 242 0.0 4.8 0.00 0.00 0.00 56 1014.4
20260905134518 27 242 3.2 6.4 0.00 0.00 0.00 56 1014.6
20260905133015 27 167 1.6 8.0 0.00 0.00 0.00 56 1014.6
20260905131515 27 142 0.0 4.8 0.00 0.00 0.00 55 1014.7
20260905130014 27 143 1.6 4.8 0.00 0.00 0.00 55 1014.7
20260905124515 26 233 0.0 4.8 0.00 0.00 0.00 56 1014.6
20260905123013 26 225 3.2 4.8 0.00 0.00 0.00 56 1014.7
20260905121513 25 225 0.0 1.6 0.00 0.00 0.00 58 1014.5
20260905120015 25 225 0.0 3.2 0.00 0.00 0.00 58 1014.4
20260905114515 24 225 0.0 3.2 0.00 0.00 0.00 59 1014.4
20260905113016 24 225 0.0 3.2 0.00 0.00 0.00 59 1014.2
20260905111512 24 225 0.0 3.2 0.00 0.00 0.00 59 1013.9
20260905110015 24 225 0.0 3.2 0.00 0.00 0.00 60 1013.4
20260905104511 24 225 0.0 3.2 0.00 0.00 0.00 60 1013.1
20260905103019 24 225 0.0 0.0 0.00 0.00 0.00 60 1013.1
20260905101515 24 225 0.0 0.0 0.00 0.00 0.00 60 1013.1
20260905100014 24 225 0.0 0.0 0.00 0.00 0.00 60 1012.9
20260905094513 24 225 0.0 3.2 0.00 0.00 0.00 61 1013.1
20260905093012 25 225 0.0 0.0 0.00 0.00 0.00 62 1013.0
20260905091510 25 225 0.0 3.2 0.00 0.00 0.00 62 1013.0
20260905090040 25 225 0.0 1.6 0.00 0.00 0.00 62 1013.0
20260905084538 25 225 0.0 1.6 0.00 0.00 0.00 62 1013.2
20260905083052 25 225 0.0 4.8 0.00 0.00 0.00 62 1013.3
20260905081550 25 225 0.0 3.2 0.00 0.00 0.00 62 1013.3
20260905080048 25 225 0.0 4.8 0.00 0.00 0.00 62 1013.5
20260905074555 26 225 0.0 3.2 0.00 0.00 0.00 62 1013.7
20260905073002 26 225 0.0 4.8 0.00 0.00 0.00 61 1013.7
20260905071502 26 225 0.0 0.0 0.00 0.00 0.00 61 1014.1
20260905070003 26 225 0.0 3.2 0.00 0.00 0.00 62 1014.1
20260905064613 26 225 3.2 6.4 0.00 0.00 0.00 61 1014.3
20260905063041 26 243 1.6 4.8 0.00 0.00 0.00 59 1014.4
20260905061545 27 241 0.0 1.6 0.00 0.00 0.00 56 1014.5
20260905060046 27 241 0.0 1.6 0.00 0.00 0.00 58 1014.8
20260905054539 27 241 0.0 3.2 0.00 0.00 0.00 58 1014.8
20260905053040 27 241 0.0 0.0 0.00 0.00 0.00 58 1015.0
20260905051547 27 241 0.0 3.2 0.00 0.00 0.00 58 1014.9
20260905050040 27 241 0.0 0.0 0.00 0.00 0.00 57 1015.0
20260905044551 27 241 0.0 3.2 0.00 0.00 0.00 57 1015.2